Dewpoint
52 51 48 48 48 48 48 48 48 47 47 47 47 47 47 47 46 47 47 48 50 49 50 51 51 50 50 49 48 48 49 40 39 37 35 35 42 50 49 50 49 53 53 42 36 25 21 19 21 24 17 18 12 15 14 16 17 14 14 12 12 6 2 2 1 1 5 1 7 11 14 13 11 24 51 53 43 35 48 50 57 57 60 62 62 65 67 69
52 52 51 49 49 48 49 48 48 48 47 47 47 47 46 46 46 46 46 46 46 47 50 51 50 50 49 49 48 49 44 40 36 34 33 40 49 50 52 53 52 51 52 37 30 18 19 19 20 19 14 12 17 7 16 11 16 12 13 12 8 8 4 7 4 4 3 0 9 12 15 13 12 19 50 47 39 42 52 55 57 58 62 64 64 65 67 68
53 52 52 51 50 49 49 49 49 48 47 47 47 46 47 46 46 46 46 46 45 46 47 48 50 49 49 49 48 48 42 35 34 30 30 50 52 53 57 58 58 55 47 33 24 17 16 20 20 17 12 5 11 6 17 14 17 10 11 9 9 10 13 12 9 6 7 8 10 13 14 13 13 25 51 47 45 48 49 53 54 58 61 62 63 66 67 68
53 53 52 52 51 51 51 51 51 51 48 47 47 47 47 47 47 45 47 47 46 46 46 46 48 49 49 50 49 44 36 35 28 34 44 51 52 52 52 52 56 58 51 41 29 20 16 18 20 17 13 5 7 8 13 15 14 9 9 11 10 5 15 15 10 9 10 12 14 14 15 13 13 20 17 24 46 45 47 52 54 55 60 61 63 66 67 67
52 52 53 53 53 51 51 51 51 51 51 48 47 47 47 47 47 46 48 48 46 45 47 46 46 48 47 49 48 40 36 25 20 43 45 48 51 50 52 50 56 57 52 44 33 21 16 18 20 17 14 8 7 10 12 14 17 12 14 13 7 21 17 10 17 16 16 18 16 15 13 12 14 13 15 22 40 40 43 52 54 55 60 61 63 65 66 66
51 51 51 51 52 53 53 52 50 50 50 51 48 48 48 47 47 46 47 47 46 46 45 47 47 46 46 49 42 37 34 7 37 41 49 47 50 49 50 47 57 58 51 43 29 19 17 17 19 18 15 9 7 7 8 11 18 13 20 16 10 21 12 16 19 17 18 16 16 15 14 15 13 13 13 14 32 45 50 53 58 58 61 61 62 65 66 65
50 50 51 51 51 51 52 53 52 52 51 50 50 49 48 48 47 47 47 46 45 46 45 46 48 48 47 49 39 37 32 29 29 38 46 46 45 46 47 42 57 57 49 37 24 17 14 17 15 15 13 9 9 7 6 10 17 12 7 14 14 20 17 15 18 18 18 17 16 16 15 13 12 11 14 25 24 37 55 55 57 60 61 62 62 64 64 64
50 50 50 50 50 50 50 51 52 52 52 50 50 50 49 48 48 47 47 46 45 47 46 45 45 46 48 40 37 32 32 29 30 34 44 42 36 35 38 26 44 53 45 31 20 15 12 12 13 11 10 8 7 7 8 12 17 12 6 13 18 16 14 15 17 16 17 17 16 15 13 12 12 11 11 16 32 43 55 56 58 58 60 60 63 63 63 64
49 49 49 50 50 50 50 50 51 50 51 52 51 50 49 49 48 47 47 46 46 46 47 46 46 45 47 42 36 32 27 29 31 34 36 33 33 32 27 24 36 46 41 32 20 14 10 9 12 11 8 8 6 8 11 11 10 12 9 8 15 17 16 16 17 18 16 15 16 14 12 12 11 20 20 19 45 55 55 57 58 59 60 60 62 64 63 63
49 49 49 49 50 50 50 50 50 51 51 51 52 50 50 49 48 48 47 47 46 46 46 46 45 46 42 38 35 31 28 28 31 36 36 34 33 33 26 26 28 39 39 33 24 14 9 9 11 11 8 7 8 7 8 9 3 13 11 12 15 12 12 15 16 17 17 16 15 13 12 11 23 28 22 45 54 56 57 58 58 60 60 61 62 64 63 63
47 48 48 48 49 49 49 49 50 50 51 50 51 51 50 50 49 48 48 47 47 46 44 45 44 43 39 41 35 29 32 31 32 33 33 33 33 32 29 27 26 31 34 35 30 19 9 9 11 10 8 6 8 6 6 8 5 11 11 11 11 11 12 13 16 16 16 14 14 14 13 11 10 33 29 51 58 57 56 58 58 58 59 60 62 63 63 64
47 47 47 48 48 48 49 49 49 50 50 50 51 51 50 50 49 49 48 48 48 48 45 44 44 40 38 38 36 32 35 34 35 34 34 34 32 33 33 31 27 28 28 32 31 23 14 9 10 11 5 6 6 5 8 8 9 8 10 6 7 9 8 9 10 10 14 13 14 13 11 9 10 21 28 51 57 59 58 57 58 59 59 61 62 63 63 62
46 46 47 47 48 48 48 48 49 49 49 49 49 50 50 50 49 49 48 48 48 48 47 45 44 38 38 36 34 36 36 36 35 35 35 34 33 32 33 31 27 27 25 27 30 25 13 14 14 11 7 7 4 4 6 8 7 8 6 3 2 6 7 7 7 7 9 11 13 11 9 8 9 18 42 52 54 59 58 58 57 59 60 61 62 62 63 63
44 45 46 46 47 47 48 48 48 49 49 49 50 49 49 49 49 49 48 48 48 48 47 47 41 38 38 33 34 34 36 37 35 34 33 33 31 31 30 29 28 26 25 26 27 25 18 16 14 12 10 7 4 8 6 6 6 4 3 3 3 3 3 5 8 7 8 10 12 11 12 8 8 25 42 53 54 56 57 52 54 58 60 61 62 62 63 63
46 46 45 46 46 46 47 48 48 48 49 50 50 50 49 49 49 49 48 48 48 46 47 46 40 38 36 32 34 34 45 37 35 34 33 31 32 31 27 25 24 24 25 26 26 25 18 14 14 13 10 10 9 6 3 4 5 2 -0 2 1 1 -1 7 10 10 5 7 12 11 13 8 13 27 45 53 54 55 55 55 55 58 59 60 61 62 63 63
47 47 46 45 45 45 47 47 47 48 50 50 50 49 49 49 49 49 49 48 48 48 44 41 40 37 33 29 29 34 30 32 33 33 33 32 32 29 21 18 20 22 25 26 26 21 17 15 12 13 10 11 6 3 3 2 4 2 1 5 -0 -2 -1 7 9 9 7 8 10 11 8 7 13 36 46 53 54 55 55 56 56 57 59 60 61 61 61 63
46 46 46 46 46 46 46 46 47 48 49 49 49 49 49 48 49 49 48 47 44 43 40 34 34 37 29 30 25 23 23 24 26 25 28 30 31 30 25 16 18 21 23 23 23 19 16 15 14 15 13 10 7 4 4 5 6 4 2 4 -0 -2 -1 1 7 7 8 9 8 10 8 8 24 35 45 52 53 55 56 56 57 58 59 60 60 61 61 62
46 46 45 45 45 45 45 45 46 48 48 49 48 48 46 48 48 47 45 45 38 37 38 35 37 36 33 33 30 25 28 27 26 27 27 31 31 29 27 14 17 20 21 22 22 16 16 13 16 15 15 12 8 6 6 4 8 8 8 7 8 7 1 -1 4 6 7 9 8 10 10 7 14 37 42 50 52 53 56 57 58 58 59 60 59 60 60 61
45 45 45 45 45 45 45 45 46 48 48 48 48 49 49 49 44 40 36 35 35 35 29 31 34 22 12 26 26 24 25 26 27 26 25 29 32 30 28 22 16 19 19 18 19 15 15 12 18 15 13 13 9 5 4 3 2 3 5 2 7 5 1 -1 0 7 7 7 6 7 8 7 15 36 41 48 51 51 56 59 59 59 58 60 60 60 59 61
45 46 45 45 45 44 44 44 45 48 48 47 42 43 41 40 40 33 37 36 30 26 24 23 31 25 21 19 18 21 23 24 23 24 27 28 31 29 26 19 14 18 18 18 17 17 15 14 15 11 10 11 9 8 6 2 3 3 6 4 3 -0 -0 0 2 6 7 5 6 8 9 8 11 28 40 46 51 53 54 58 58 60 59 59 59 59 61 62
45 46 46 46 46 44 44 43 44 46 47 45 44 39 33 33 30 26 30 35 35 33 30 28 26 27 27 24 21 21 23 24 23 23 24 31 29 25 18 14 13 17 17 15 17 18 15 14 13 7 8 10 10 11 11 5 4 6 5 2 0 0 0 3 5 6 5 14 6 10 8 10 12 25 35 45 50 50 52 56 59 59 59 59 59 59 60 63
45 46 46 45 46 46 45 44 44 45 46 45 43 35 36 40 35 34 35 26 26 28 29 29 29 29 28 29 29 26 27 25 23 23 25 27 25 20 15 11 12 13 16 15 17 19 17 12 11 7 8 9 9 9 8 8 7 2 2 2 -0 -1 0 4 4 6 5 5 7 7 8 8 12 23 33 43 47 50 52 53 56 59 60 60 60 59 62 63
45 45 45 45 46 46 45 44 44 46 42 40 37 36 37 38 35 33 35 33 30 30 30 29 28 30 30 30 31 30 26 24 19 15 17 25 24 20 12 9 11 12 14 14 16 20 17 11 10 8 6 7 8 7 7 9 10 7 4 3 1 0 0 4 6 5 6 8 8 10 8 11 14 27 36 40 44 44 47 48 52 58 60 60 61 60 62 62
44 45 45 45 45 45 44 43 45 42 39 38 37 37 38 37 35 34 38 31 26 26 27 31 30 28 29 29 31 30 26 24 24 19 24 23 21 21 16 7 9 11 12 13 16 16 11 10 8 8 8 7 8 8 8 8 7 9 4 -0 -1 -0 1 0 5 6 7 7 11 7 11 10 22 32 40 41 44 42 43 47 51 53 57 59 61 61 62 61
45 45 45 45 45 44 43 44 38 34 39 39 39 39 41 41 38 36 37 28 26 26 30 28 30 30 30 32 33 30 28 25 24 21 21 21 20 19 17 11 9 9 11 15 16 13 9 12 13 12 8 6 6 5 5 6 6 7 7 2 1 1 2 4 8 6 9 11 6 6 7 11 15 18 28 36 43 44 43 46 49 55 50 52 55 58 60 61
45 45 45 44 45 43 44 38 37 37 35 36 39 38 38 38 37 39 36 26 20 17 31 24 32 28 34 30 31 28 28 24 24 23 21 21 23 19 15 10 9 8 12 16 14 15 11 20 17 13 9 4 2 2 2 4 5 8 5 4 1 3 3 2 4 5 6 7 7 10 6 15 13 13 22 32 36 41 44 42 43 46 47 47 48 49 57 58
44 44 44 44 43 43 40 35 34 32 32 35 38 42 40 39 41 40 31 20 19 20 21 31 30 31 32 31 30 28 17 14 25 25 22 24 19 20 13 8 10 11 12 18 18 12 16 20 18 14 9 3 1 2 2 1 2 1 6 3 2 2 2 3 2 2 6 8 11 9 6 8 13 13 18 27 33 32 36 40 40 39 45 45 49 50 56 59
43 44 43 42 42 42 41 40 34 32 33 40 46 46 44 42 42 42 31 15 15 21 21 26 27 31 31 31 29 20 20 23 21 23 23 22 22 19 17 9 8 9 12 15 14 17 21 20 17 14 11 5 2 1 0 0 -2 -2 3 4 2 2 3 3 2 4 8 12 10 9 6 10 12 16 17 25 29 32 36 37 39 41 42 45 49 52 55 58
43 43 43 42 42 43 42 41 37 32 34 41 44 47 43 44 41 34 23 15 25 22 24 24 30 27 28 30 28 20 20 22 17 22 23 23 22 19 16 14 8 8 12 16 15 18 18 20 16 14 12 9 7 4 -0 -0 -3 0 6 4 2 2 3 3 3 2 8 13 11 8 7 8 6 19 15 25 26 30 33 35 36 40 43 44 47 52 55 56
43 43 43 43 42 40 42 42 39 36 37 41 44 44 46 42 34 23 20 15 31 23 21 24 25 25 28 27 27 25 22 20 24 23 22 21 21 25 19 14 9 10 14 15 14 15 17 24 20 16 14 12 11 9 6 1 -5 6 3 -0 -0 -1 3 6 7 7 10 9 8 4 7 4 3 10 13 18 23 26 30 34 35 38 39 43 49 52 54 57
45 44 43 43 42 37 38 32 35 37 40 43 44 44 43 36 25 16 13 11 26 33 29 21 23 26 25 23 21 24 23 20 21 21 19 21 20 20 17 15 12 9 14 14 14 13 17 19 18 17 17 15 15 14 9 1 -2 6 0 -2 -1 4 5 10 9 10 9 7 7 4 5 5 6 7 10 18 17 18 26 31 33 32 30 37 47 51 54 57
45 46 44 44 39 41 38 29 35 40 41 43 41 40 34 19 23 16 13 18 15 31 30 25 23 24 22 23 22 17 19 20 21 17 16 16 20 18 16 13 14 12 11 12 12 12 16 17 19 16 21 16 17 12 9 3 6 3 -1 -0 6 6 14 7 7 9 7 8 7 2 3 6 5 14 14 13 13 13 22 25 28 29 30 34 44 50 59 59
45 45 46 44 42 41 37 34 37 41 44 41 39 37 26 17 13 12 15 17 20 32 29 30 27 25 24 23 20 19 16 15 20 14 15 16 18 16 15 10 10 11 11 17 14 15 14 17 17 18 19 20 15 10 10 7 8 2 1 3 3 4 4 7 4 7 6 6 11 6 4 6 9 9 11 17 20 17 18 22 27 33 29 41 47 52 61 60
46 46 45 44 41 40 43 44 42 42 43 40 37 30 24 13 13 22 16 17 27 33 31 28 26 25 25 22 19 18 15 15 17 13 13 16 17 18 13 10 10 9 14 16 11 12 13 11 13 15 15 16 15 10 11 9 9 3 -0 -0 5 5 7 9 2 7 6 3 10 7 8 8 6 9 7 14 33 36 36 38 43 50 54 51 49 60 60 60
46 46 44 42 42 41 44 42 44 44 43 39 32 24 17 13 12 17 18 24 27 28 27 29 26 24 23 24 18 16 14 16 16 13 12 15 17 16 14 10 12 10 12 15 17 18 9 13 13 14 14 15 14 12 12 10 8 5 3 1 2 4 8 4 7 7 9 5 13 12 11 10 9 32 35 41 36 37 41 40 42 42 47 54 50 60 59 60
44 39 39 39 39 44 43 45 46 45 42 35 26 19 16 13 13 25 26 28 29 26 27 26 27 24 23 21 17 13 15 13 15 13 12 13 15 15 11 12 11 9 14 15 20 13 10 14 11 12 11 14 14 13 13 12 14 10 4 5 2 2 1 17 17 24 21 14 12 15 14 14 24 24 35 38 34 35 39 39 41 43 42 49 51 58 59 60
38 36 35 38 38 43 42 41 44 43 40 33 23 17 19 18 25 27 31 28 29 31 27 21 23 26 23 17 13 13 13 14 15 14 14 14 15 14 13 11 13 13 14 16 18 14 13 10 12 11 11 14 14 12 14 13 9 8 6 3 4 3 7 15 5 12 8 8 11 15 9 5 11 12 28 35 35 28 38 40 39 45 45 47 52 57 59 59
38 35 37 38 37 41 42 41 43 40 37 29 23 22 22 16 25 26 30 31 31 30 26 23 25 26 24 16 11 13 13 12 15 13 13 14 14 14 13 12 12 11 14 12 16 18 11 10 10 9 9 11 12 14 13 12 10 9 6 7 7 11 13 16 8 10 6 7 5 13 11 9 3 15 31 32 32 32 32 35 39 44 45 47 52 56 59 60
38 35 32 35 41 42 40 43 43 39 34 25 23 21 17 17 25 28 29 30 32 30 24 27 24 24 24 24 20 17 11 12 13 14 12 14 13 17 14 14 13 12 13 12 16 20 18 15 11 8 8 10 12 12 12 11 10 12 12 4 5 12 13 14 10 14 9 4 8 9 9 8 7 13 28 28 30 32 30 36 42 44 45 48 53 55 59 59
35 31 26 41 43 44 40 43 39 37 29 22 21 19 16 19 26 30 30 28 26 25 26 25 25 24 25 27 25 17 13 11 12 14 12 18 14 15 13 13 12 10 11 14 11 14 18 21 11 8 7 9 9 11 11 10 11 12 12 9 6 16 11 7 17 6 7 6 4 10 15 18 17 19 22 27 27 28 31 43 48 48 49 50 54 57 60 59
37 35 33 44 43 46 43 42 35 26 24 24 21 18 17 17 23 25 30 33 29 30 25 26 25 24 25 26 24 21 15 11 13 12 12 14 14 16 14 12 12 11 13 11 10 18 16 18 14 13 6 7 8 9 8 8 10 9 10 11 9 9 12 10 11 1 6 11 10 7 12 19 25 26 23 26 27 34 41 48 52 52 51 52 55 60 59 58
34 29 34 41 44 45 40 31 28 29 26 21 15 16 12 28 23 24 29 29 31 29 33 31 30 28 28 29 28 24 22 14 10 13 10 15 14 16 14 13 13 12 11 14 15 17 22 20 16 12 10 9 6 9 10 8 9 7 8 11 7 13 14 12 11 13 11 7 16 14 11 11 42 44 46 49 51 48 52 52 53 52 53 54 58 59 59 59
33 31 41 41 44 42 37 27 26 24 25 17 20 19 21 21 24 25 25 28 28 31 33 32 30 29 29 28 29 28 25 17 9 10 10 12 14 12 15 14 12 12 12 16 12 18 22 20 12 11 9 8 8 7 10 10 9 7 6 7 8 12 12 11 10 17 9 15 15 16 15 19 44 49 49 49 51 52 53 52 52 55 56 57 58 57 57 58
34 34 35 42 43 42 35 22 18 17 19 22 23 21 23 24 27 26 28 28 29 32 31 31 29 29 28 27 28 29 29 25 16 14 12 11 14 10 14 14 13 12 12 17 18 24 17 19 14 11 9 9 11 10 10 10 10 11 10 10 7 9 12 16 13 20 12 14 9 6 6 3 48 51 49 49 47 50 51 53 55 55 55 55 56 56 57 57
37 37 37 39 41 39 30 29 26 25 27 27 25 24 24 26 26 27 27 27 30 31 31 28 27 29 29 30 31 29 29 29 19 16 26 13 23 13 13 14 13 14 11 15 27 18 16 19 15 10 10 10 9 10 9 10 10 13 10 7 8 9 17 15 13 17 12 15 7 7 4 24 44 48 48 47 48 48 51 54 55 55 54 55 55 56 57 57
32 26 30 35 38 39 35 35 33 30 27 29 27 27 27 26 31 33 32 33 33 33 32 31 31 31 31 30 29 30 28 29 27 22 19 19 24 11 12 14 13 12 24 34 30 20 20 23 19 17 11 9 11 15 13 9 11 9 11 9 9 10 12 20 19 13 9 14 13 12 13 16 35 41 47 47 48 47 52 53 53 53 54 55 55 55 56 56
37 28 27 26 32 36 33 35 33 34 29 32 27 31 29 31 31 34 36 32 36 35 34 33 33 33 33 30 31 29 33 29 28 31 26 19 29 28 15 13 14 17 33 25 29 19 20 18 20 23 20 11 11 12 14 10 14 13 12 13 8 10 17 22 16 13 17 15 8 18 19 17 18 37 44 49 48 49 52 52 52 52 54 54 55 55 54 55
28 33 33 34 29 26 28 29 35 32 33 33 29 32 30 30 31 30 36 36 36 37 34 34 35 34 32 32 34 33 32 34 32 31 24 21 26 27 19 16 12 22 28 16 21 22 21 15 21 24 24 25 29 23 20 15 12 14 18 19 17 13 18 21 22 19 23 15 13 20 20 19 17 24 41 46 49 51 52 52 53 52 53 54 54 54 54 54
37 34 34 37 29 30 31 32 33 32 31 33 31 33 31 31 30 33 34 35 36 35 36 31 34 35 34 34 33 32 34 31 31 36 32 27 26 27 23 20 18 20 18 20 18 24 21 14 23 22 24 26 23 29 24 16 17 16 19 18 19 19 19 20 23 23 24 24 22 25 25 26 20 15 41 47 51 52 53 53 52 51 52 53 53 53 53 53
32 31 29 36 35 32 32 34 34 32 30 34 30 31 32 31 31 34 35 34 31 34 37 36 37 37 35 32 33 33 38 39 39 35 40 40 32 30 27 24 23 23 17 23 22 29 26 16 28 23 22 28 31 33 32 21 23 23 18 17 18 19 18 19 22 24 25 25 24 27 30 25 36 48 46 49 52 52 51 51 51 51 51 53 53 53 53 53
39 40 38 30 29 32 35 35 34 33 30 33 30 31 33 35 33 35 35 37 35 33 36 36 37 38 35 35 35 37 38 40 40 41 42 41 33 37 36 35 23 21 16 26 27 32 28 28 25 23 17 25 37 37 35 34 28 24 28 31 33 25 20 22 20 24 24 23 26 28 26 23 42 47 47 50 51 51 50 51 51 51 52 52 54 53 52 52
41 43 41 36 29 32 33 35 37 34 29 34 35 34 34 34 36 36 32 37 38 39 38 38 37 40 36 37 38 40 40 40 40 41 40 39 38 38 36 36 34 21 21 28 27 27 20 23 22 17 15 19 34 36 34 32 28 25 29 31 33 31 26 24 21 24 30 30 24 22 20 20 40 46 46 48 50 49 51 50 50 51 51 51 52 53 53 52